Location: Westminster
(33.3626°N, 96.4619°W)
Time: 21:17:03
(UTC+00:00)

Cosmos 1763 Rocket - Pass Details

Date: 03 December 2021
Orbit: 732 x 780 km, 74.0° (Epoch: 26 January)

Event Time Altitude Azimuth Distance (km) Brightness Sun altitude
Rises 23:36:39 0° 207° (SSW) 3,141 7.6 -4.4°
Reaches altitude 10° 23:39:02 10° 211° (SSW) 2,223 6.9 -4.8°
Maximum altitude 23:43:57 54° 289° (WNW) 885 4.2 -5.8°
Drops below altitude 10° 23:48:55 10° 7° (N) 2,248 5.6 -6.7°
Sets 23:51:20 0° 12° (NNE) 3,180 6.4 -7.2°
